"read_dt","SO2 (ppb)","flags","PMT voltage (V)","lamp voltage (V)","lamp intensity (Hz)","internal temp (C)","react chamber temp (C)","sample flow (l/min)","pres (mmHg)","SO2 bkg (ppb)","SO2 coefficient"
2014-06-05 00:00:00,1840E-3,5C000000,-0724,0845,12187,028.6,045.5,0.488,740.7,01.18,0.508
2014-06-05 00:01:00,1825E-3,5C000000,-0724,0845,12088,028.6,045.5,0.487,740.8,01.18,0.508
2014-06-05 00:02:00,1870E-3,5C000000,-0724,0845,12128,028.6,045.5,0.487,740.8,01.18,0.508
2014-06-05 00:03:00,1779E-3,5C000000,-0724,0846,12021,028.6,045.5,0.487,740.7,01.18,0.508
2014-06-05 00:04:00,1647E-3,5C000000,-0724,0845,11972,028.6,045.5,0.488,740.8,01.18,0.508
2014-06-05 00:05:00,1768E-3,5C000000,-0724,0845,12055,028.6,045.5,0.487,740.7,01.18,0.508
2014-06-05 00:06:00,1849E-3,5C000000,-0724,0845,12082,028.6,045.5,0.487,740.6,01.18,0.508
2014-06-05 00:07:00,1751E-3,5C000000,-0724,0846,11997,028.6,045.5,0.487,740.6,01.18,0.508
2014-06-05 00:08:00,1834E-3,5C000000,-0724,0844,11855,028.6,045.5,0.487,740.6,01.18,0.508
2014-06-05 00:09:00,1687E-3,5C000000,-0724,0845,11939,028.6,045.5,0.487,740.6,01.18,0.508
2014-06-05 00:10:00,1778E-3,5C000000,-0724,0845,11940,028.7,045.5,0.487,740.7,01.18,0.508
2014-06-05 00:11:00,1908E-3,5C000000,-0724,0845,12129,028.7,045.5,0.487,740.6,01.18,0.508
2014-06-05 00:12:00,1746E-3,5C000000,-0724,0845,12155,028.7,045.5,0.487,740.7,01.18,0.508
2014-06-05 00:13:00,1744E-3,5C000000,-0724,0845,12121,028.7,045.5,0.487,740.6,01.18,0.508
2014-06-05 00:14:00,1924E-3,5C000000,-0724,0845,12086,028.7,045.5,0.487,740.8,01.18,0.508
2014-06-05 00:15:00,1780E-3,5C000000,-0724,0846,12092,028.7,045.5,0.487,740.7,01.18,0.508
2014-06-05 00:16:00,1916E-3,5C000000,-0724,0845,12064,028.7,045.5,0.487,740.6,01.18,0.508
2014-06-05 00:17:00,1902E-3,5C000000,-0724,0844,12095,028.7,045.5,0.487,740.6,01.18,0.508
2014-06-05 00:18:00,1740E-3,5C000000,-0724,0846,12053,028.7,045.5,0.487,740.6,01.18,0.508
2014-06-05 00:19:00,1932E-3,5C000000,-0724,0845,12033,028.7,045.5,0.487,740.6,01.18,0.508
2014-06-05 00:20:00,1917E-3,5C000000,-0724,0844,11949,028.7,045.5,0.487,740.6,01.18,0.508
2014-06-05 00:21:00,1848E-3,5C000000,-0724,0845,12003,028.7,045.5,0.487,740.6,01.18,0.508
2014-06-05 00:22:00,1837E-3,5C000000,-0724,0845,11966,028.7,045.5,0.487,740.6,01.18,0.508
2014-06-05 00:23:00,1720E-3,5C000000,-0724,0846,11942,028.7,045.5,0.487,740.6,01.18,0.508
2014-06-05 00:24:00,2006E-3,5C000000,-0724,0846,12140,028.7,045.5,0.487,740.6,01.18,0.508
2014-06-05 00:25:00,1842E-3,5C000000,-0724,0845,12120,028.7,045.5,0.487,740.6,01.18,0.508
2014-06-05 00:26:00,1862E-3,5C000000,-0724,0844,11977,028.7,045.5,0.487,740.6,01.18,0.508
2014-06-05 00:27:00,1881E-3,5C000000,-0724,0844,11862,028.7,045.5,0.487,740.6,01.18,0.508
2014-06-05 00:28:00,1960E-3,5C000000,-0724,0845,12141,028.7,045.5,0.487,740.6,01.18,0.508
2014-06-05 00:29:00,1779E-3,5C000000,-0724,0846,12163,028.8,045.5,0.487,740.6,01.18,0.508
2014-06-05 00:30:00,1738E-3,5C000000,-0724,0846,12032,028.8,045.5,0.487,740.6,01.18,0.508
2014-06-05 00:31:00,1935E-3,5C000000,-0724,0846,12174,028.8,045.5,0.487,740.6,01.18,0.508
2014-06-05 00:32:00,1896E-3,5C000000,-0724,0845,12164,028.8,045.5,0.487,740.6,01.18,0.508
2014-06-05 00:33:00,1814E-3,5C000000,-0724,0845,11869,028.8,045.5,0.487,740.6,01.18,0.508
2014-06-05 00:34:00,1845E-3,5C000000,-0724,0845,12164,028.8,045.5,0.487,740.6,01.18,0.508
2014-06-05 00:35:00,1821E-3,5C000000,-0724,0845,11819,028.8,045.5,0.487,740.6,01.18,0.508
2014-06-05 00:36:00,1823E-3,5C000000,-0724,0845,11932,028.8,045.5,0.487,740.6,01.18,0.508
2014-06-05 00:37:00,1780E-3,5C000000,-0724,0844,11768,028.8,045.5,0.487,740.6,01.18,0.508
2014-06-05 00:38:00,1824E-3,5C000000,-0724,0846,12059,028.8,045.5,0.487,740.6,01.18,0.508
2014-06-05 00:39:00,1936E-3,5C000000,-0724,0845,11952,028.8,045.5,0.487,740.6,01.18,0.508
2014-06-05 00:40:00,1740E-3,5C000000,-0724,0846,12036,028.8,045.5,0.487,740.8,01.18,0.508
2014-06-05 00:41:00,1866E-3,5C000000,-0724,0846,12006,028.8,045.5,0.487,740.7,01.18,0.508
2014-06-05 00:42:00,1744E-3,5C000000,-0724,0846,12091,028.8,045.5,0.487,740.7,01.18,0.508
2014-06-05 00:43:00,1830E-3,5C000000,-0724,0846,11905,028.8,045.5,0.487,740.8,01.18,0.508
2014-06-05 00:44:00,1798E-3,5C000000,-0724,0846,11973,028.8,045.5,0.487,740.8,01.18,0.508
2014-06-05 00:45:00,1832E-3,5C000000,-0724,0845,12012,028.9,045.5,0.487,740.8,01.18,0.508
2014-06-05 00:46:00,1761E-3,5C000000,-0724,0846,12106,028.8,045.5,0.487,740.8,01.18,0.508
2014-06-05 00:47:00,1828E-3,5C000000,-0724,0845,12052,028.8,045.5,0.487,740.7,01.18,0.508
2014-06-05 00:48:00,2001E-3,5C000000,-0724,0844,12084,028.9,045.5,0.487,740.7,01.18,0.508
2014-06-05 00:49:00,1797E-3,5C000000,-0724,0846,12275,028.9,045.5,0.487,740.6,01.18,0.508
2014-06-05 00:50:00,1859E-3,5C000000,-0724,0845,12099,028.9,045.5,0.487,740.6,01.18,0.508
2014-06-05 00:51:00,1880E-3,5C000000,-0724,0846,12086,028.9,045.5,0.487,740.7,01.18,0.508
2014-06-05 00:52:00,1771E-3,5C000000,-0724,0845,12028,028.9,045.5,0.487,740.7,01.18,0.508
2014-06-05 00:53:00,1876E-3,5C000000,-0724,0846,12146,028.9,045.5,0.487,740.7,01.18,0.508
2014-06-05 00:54:00,1781E-3,5C000000,-0724,0846,12072,028.9,045.5,0.487,740.6,01.18,0.508
2014-06-05 00:55:00,1789E-3,5C000000,-0724,0846,12010,028.9,045.5,0.486,740.6,01.18,0.508
2014-06-05 00:56:00,1794E-3,5C000000,-0724,0846,12098,028.9,045.5,0.487,740.7,01.18,0.508
2014-06-05 00:57:00,1729E-3,5C000000,-0724,0846,11822,028.9,045.5,0.487,740.6,01.18,0.508
2014-06-05 00:58:00,1900E-3,5C000000,-0724,0845,12138,028.9,045.5,0.487,740.6,01.18,0.508
2014-06-05 00:59:00,1949E-3,5C000000,-0724,0847,12238,028.9,045.5,0.486,740.6,01.18,0.508
2014-06-05 01:00:00,1821E-3,5C000000,-0724,0847,12167,028.9,045.5,0.486,740.6,01.18,0.508
2014-06-05 01:01:00,1826E-3,5C000000,-0724,0845,12066,028.9,045.5,0.487,740.6,01.18,0.508
2014-06-05 01:02:00,1874E-3,5C000000,-0724,0845,12127,028.9,045.5,0.487,740.6,01.18,0.508
2014-06-05 01:03:00,1711E-3,5C000000,-0724,0845,11936,029.0,045.5,0.487,740.6,01.18,0.508
2014-06-05 01:04:00,1817E-3,5C000000,-0724,0846,12059,029.0,045.5,0.486,740.6,01.18,0.508
2014-06-05 01:05:00,1821E-3,5C000000,-0724,0845,12037,029.0,045.5,0.487,740.6,01.18,0.508
2014-06-05 01:06:00,1830E-3,5C000000,-0724,0845,12056,029.0,045.5,0.487,740.6,01.18,0.508
2014-06-05 01:07:00,1820E-3,5C000000,-0724,0845,12080,029.0,045.5,0.487,740.6,01.18,0.508
2014-06-05 01:08:00,1813E-3,5C000000,-0724,0846,12044,029.0,045.5,0.486,740.6,01.18,0.508
2014-06-05 01:09:00,1840E-3,5C000000,-0724,0845,12011,029.0,045.5,0.486,740.6,01.18,0.508
2014-06-05 01:10:00,1781E-3,5C000000,-0724,0845,11882,029.0,045.5,0.487,740.6,01.18,0.508
2014-06-05 01:11:00,1856E-3,5C000000,-0724,0845,12071,029.0,045.5,0.487,740.6,01.18,0.508
2014-06-05 01:12:00,1892E-3,5C000000,-0724,0846,11942,029.0,045.5,0.487,740.6,01.18,0.508
2014-06-05 01:13:00,1821E-3,5C000000,-0724,0845,11795,029.0,045.5,0.486,740.6,01.18,0.508
2014-06-05 01:14:00,1794E-3,5C000000,-0724,0846,11910,029.0,045.5,0.486,740.6,01.18,0.508
2014-06-05 01:15:00,1901E-3,5C000000,-0724,0845,12016,029.0,045.5,0.487,740.6,01.18,0.508
2014-06-05 01:16:00,1814E-3,5C000000,-0724,0846,12023,029.0,045.5,0.487,740.6,01.18,0.508
2014-06-05 01:17:00,1819E-3,5C000000,-0724,0845,12006,029.0,045.5,0.486,740.6,01.18,0.508
2014-06-05 01:18:00,1808E-3,5C000000,-0724,0846,12089,029.0,045.5,0.486,740.6,01.18,0.508
2014-06-05 01:19:00,1717E-3,5C000000,-0724,0845,11971,029.1,045.5,0.486,740.6,01.18,0.508
2014-06-05 01:20:00,1900E-3,5C000000,-0724,0846,11932,029.1,045.5,0.487,740.6,01.18,0.508
2014-06-05 01:21:00,1651E-3,5C000000,-0724,0846,12105,029.1,045.5,0.487,740.6,01.18,0.508
2014-06-05 01:22:00,1924E-3,5C000000,-0724,0846,11967,029.1,045.5,0.486,740.6,01.18,0.508
2014-06-05 01:23:00,1884E-3,5C000000,-0724,0846,11892,029.1,045.5,0.486,740.6,01.18,0.508
2014-06-05 01:24:00,1894E-3,5C000000,-0724,0845,11971,029.1,045.5,0.486,740.6,01.18,0.508
2014-06-05 01:25:00,1883E-3,5C000000,-0724,0846,12096,029.1,045.5,0.487,740.6,01.18,0.508
2014-06-05 01:26:00,1929E-3,5C000000,-0724,0845,11756,029.1,045.5,0.487,740.6,01.18,0.508
2014-06-05 01:27:00,1847E-3,5C000000,-0724,0846,12051,029.1,045.5,0.487,740.6,01.18,0.508
2014-06-05 01:28:00,1913E-3,5C000000,-0724,0847,12063,029.1,045.6,0.486,740.6,01.18,0.508
2014-06-05 01:29:00,1883E-3,5C000000,-0724,0846,12076,029.1,045.5,0.486,740.6,01.18,0.508
2014-06-05 01:30:00,1828E-3,5C000000,-0724,0847,12035,029.1,045.5,0.486,740.6,01.18,0.508
2014-06-05 01:31:00,1776E-3,5C000000,-0724,0847,12087,029.1,045.5,0.486,740.6,01.18,0.508
2014-06-05 01:32:00,1891E-3,5C000000,-0724,0845,12022,029.1,045.5,0.487,740.6,01.18,0.508
2014-06-05 01:33:00,1845E-3,5C000000,-0724,0845,11997,029.1,045.5,0.487,740.6,01.18,0.508
2014-06-05 01:34:00,1888E-3,5C000000,-0724,0846,11961,029.1,045.5,0.487,740.6,01.18,0.508
2014-06-05 01:35:00,1878E-3,5C000000,-0724,0847,12074,029.1,045.5,0.486,740.6,01.18,0.508
2014-06-05 01:36:00,1836E-3,5C000000,-0724,0846,12047,029.1,045.5,0.486,740.6,01.18,0.508
2014-06-05 01:37:00,1868E-3,5C000000,-0724,0846,12101,029.2,045.5,0.486,740.6,01.18,0.508
2014-06-05 01:38:00,1730E-3,5C000000,-0724,0846,12003,029.2,045.6,0.486,740.6,01.18,0.508
2014-06-05 01:39:00,1860E-3,5C000000,-0724,0846,12159,029.2,045.5,0.486,740.6,01.18,0.508
2014-06-05 01:40:00,1736E-3,5C000000,-0724,0845,12173,029.2,045.5,0.487,740.6,01.18,0.508
2014-06-05 01:41:00,1811E-3,5C000000,-0724,0844,12016,029.2,045.5,0.487,740.6,01.18,0.508
2014-06-05 01:42:00,1856E-3,5C000000,-0724,0846,12061,029.2,045.5,0.487,740.6,01.18,0.508
2014-06-05 01:43:00,1819E-3,5C000000,-0724,0846,12098,029.2,045.5,0.486,740.6,01.18,0.508
2014-06-05 01:44:00,1701E-3,5C000000,-0724,0845,11799,029.2,045.5,0.486,740.6,01.18,0.508
2014-06-05 01:45:00,1804E-3,5C000000,-0724,0845,11995,029.2,045.5,0.486,740.6,01.18,0.508
2014-06-05 01:46:00,1833E-3,5C000000,-0724,0846,12033,029.2,045.5,0.486,740.6,01.18,0.508
2014-06-05 01:47:00,1840E-3,5C000000,-0724,0846,12157,029.2,045.5,0.486,740.6,01.18,0.508
2014-06-05 01:48:00,1715E-3,5C000000,-0724,0845,11931,029.2,045.5,0.486,740.6,01.18,0.508
2014-06-05 01:49:00,1746E-3,5C000000,-0724,0845,12192,029.2,045.5,0.487,740.6,01.18,0.508
2014-06-05 01:50:00,1838E-3,5C000000,-0724,0845,12038,029.2,045.5,0.487,740.6,01.18,0.508
2014-06-05 01:51:00,1795E-3,5C000000,-0724,0845,11927,029.2,045.6,0.486,740.6,01.18,0.508
2014-06-05 01:52:00,1825E-3,5C000000,-0724,0846,11973,029.2,045.6,0.486,740.6,01.18,0.508
2014-06-05 01:53:00,1869E-3,5C000000,-0724,0845,12112,029.2,045.5,0.486,740.6,01.18,0.508
2014-06-05 01:54:00,1906E-3,5C000000,-0724,0846,11924,029.2,045.5,0.486,740.6,01.18,0.508
2014-06-05 01:55:00,1690E-3,5C000000,-0724,0846,11999,029.3,045.5,0.486,740.6,01.18,0.508
2014-06-05 01:56:00,1767E-3,5C000000,-0724,0845,11925,029.2,045.5,0.486,740.6,01.18,0.508
2014-06-05 01:57:00,1792E-3,5C000000,-0724,0845,12140,029.3,045.5,0.486,740.6,01.18,0.508
2014-06-05 01:58:00,1804E-3,5C000000,-0724,0845,12203,029.3,045.5,0.486,740.6,01.18,0.508
2014-06-05 01:59:00,1838E-3,5C000000,-0724,0845,12115,029.3,045.5,0.486,740.6,01.18,0.508
2014-06-05 02:00:00,1658E-3,5C000000,-0724,0846,12229,029.3,045.5,0.486,740.6,01.18,0.508
2014-06-05 02:01:00,1830E-3,5C000000,-0724,0845,12012,029.3,045.5,0.486,740.6,01.18,0.508
2014-06-05 02:02:00,1840E-3,5C000000,-0724,0845,12119,029.3,045.5,0.486,740.6,01.18,0.508
2014-06-05 02:03:00,1988E-3,5C000000,-0724,0847,12006,029.3,045.5,0.486,740.6,01.18,0.508
2014-06-05 02:04:00,1753E-3,5C000000,-0724,0846,12007,029.3,045.5,0.486,740.6,01.18,0.508
2014-06-05 02:05:00,1820E-3,5C000000,-0724,0846,11872,029.3,045.6,0.487,740.6,01.18,0.508
2014-06-05 02:06:00,1920E-3,5C000000,-0724,0845,12047,029.3,045.5,0.486,740.6,01.18,0.508
2014-06-05 02:07:00,2046E-3,5C000000,-0724,0846,12074,029.3,045.5,0.486,740.6,01.18,0.508
2014-06-05 02:08:00,1765E-3,5C000000,-0724,0846,12044,029.3,045.5,0.486,740.6,01.18,0.508
2014-06-05 02:09:00,1786E-3,5C000000,-0724,0846,12170,029.3,045.5,0.486,740.6,01.18,0.508
2014-06-05 02:10:00,1887E-3,5C000000,-0724,0846,11972,029.3,045.5,0.486,740.6,01.18,0.508
2014-06-05 02:11:00,1971E-3,5C000000,-0724,0845,12192,029.3,045.5,0.486,740.6,01.18,0.508
2014-06-05 02:12:00,1874E-3,5C000000,-0724,0846,12105,029.3,045.5,0.486,740.6,01.18,0.508
2014-06-05 02:13:00,1822E-3,5C000000,-0724,0846,11814,029.3,045.5,0.486,740.6,01.18,0.508
2014-06-05 02:14:00,1808E-3,5C000000,-0724,0846,12138,029.3,045.5,0.486,740.6,01.18,0.508
2014-06-05 02:15:00,1785E-3,5C000000,-0724,0845,11846,029.3,045.6,0.486,740.6,01.18,0.508
2014-06-05 02:16:00,1839E-3,5C000000,-0724,0845,12123,029.3,045.5,0.486,740.6,01.18,0.508
2014-06-05 02:17:00,1798E-3,5C000000,-0724,0845,12072,029.3,045.5,0.486,740.6,01.18,0.508
2014-06-05 02:18:00,1800E-3,5C000000,-0724,0846,11819,029.3,045.5,0.486,740.6,01.18,0.508
2014-06-05 02:19:00,1772E-3,5C000000,-0724,0847,11966,029.3,045.5,0.486,740.6,01.18,0.508
2014-06-05 02:20:00,1801E-3,5C000000,-0724,0846,12065,029.3,045.5,0.486,740.6,01.18,0.508
2014-06-05 02:21:00,1768E-3,5C000000,-0724,0846,12019,029.3,045.5,0.486,740.6,01.18,0.508
2014-06-05 02:22:00,1761E-3,5C000000,-0724,0846,12063,029.3,045.5,0.486,740.6,01.18,0.508
2014-06-05 02:23:00,1635E-3,5C000000,-0724,0845,12074,029.4,045.5,0.486,740.6,01.18,0.508
2014-06-05 02:24:00,1784E-3,5C000000,-0724,0845,12040,029.4,045.5,0.486,740.6,01.18,0.508
2014-06-05 02:25:00,1792E-3,5C000000,-0724,0846,12116,029.4,045.6,0.486,740.6,01.18,0.508
2014-06-05 02:26:00,1881E-3,5C000000,-0724,0846,11948,029.3,045.5,0.486,740.6,01.18,0.508
2014-06-05 02:27:00,1702E-3,5C000000,-0724,0845,11925,029.4,045.5,0.486,740.6,01.18,0.508
2014-06-05 02:28:00,1850E-3,5C000000,-0724,0845,11834,029.4,045.5,0.486,740.6,01.18,0.508
2014-06-05 02:29:00,1811E-3,5C000000,-0724,0846,11948,029.4,045.5,0.486,740.6,01.18,0.508
2014-06-05 02:30:00,1924E-3,5C000000,-0724,0846,12026,029.4,045.6,0.486,740.6,01.18,0.508
2014-06-05 02:31:00,1781E-3,5C000000,-0724,0845,12224,029.4,045.5,0.486,740.6,01.18,0.508
2014-06-05 02:32:00,1858E-3,5C000000,-0724,0846,12112,029.4,045.5,0.486,740.6,01.18,0.508
2014-06-05 02:33:00,1767E-3,5C000000,-0724,0846,12240,029.4,045.5,0.486,740.6,01.18,0.508
2014-06-05 02:34:00,1825E-3,5C000000,-0724,0846,12151,029.4,045.5,0.486,740.6,01.18,0.508
2014-06-05 02:35:00,1794E-3,5C000000,-0724,0846,12010,029.4,045.5,0.486,740.6,01.18,0.508
2014-06-05 02:36:00,1852E-3,5C000000,-0724,0845,12042,029.4,045.5,0.486,740.6,01.18,0.508
2014-06-05 02:37:00,1881E-3,5C000000,-0724,0846,12024,029.4,045.6,0.486,740.6,01.18,0.508
2014-06-05 02:38:00,1797E-3,5C000000,-0724,0845,12116,029.4,045.5,0.486,740.6,01.18,0.508
2014-06-05 02:39:00,1816E-3,5C000000,-0724,0846,11943,029.4,045.5,0.486,740.6,01.18,0.508
2014-06-05 02:40:00,1838E-3,5C000000,-0724,0846,12038,029.4,045.5,0.486,740.6,01.18,0.508
2014-06-05 02:41:00,1855E-3,5C000000,-0724,0846,12012,029.4,045.5,0.486,740.6,01.18,0.508
2014-06-05 02:42:00,1874E-3,5C000000,-0724,0845,12098,029.4,045.6,0.486,740.6,01.18,0.508
2014-06-05 02:43:00,1825E-3,5C000000,-0724,0846,12159,029.4,045.6,0.486,740.6,01.18,0.508
2014-06-05 02:44:00,1820E-3,5C000000,-0724,0847,11951,029.4,045.5,0.486,740.6,01.18,0.508
2014-06-05 02:45:00,1889E-3,5C000000,-0724,0846,12070,029.4,045.5,0.486,740.6,01.18,0.508
2014-06-05 02:46:00,1820E-3,5C000000,-0724,0846,11918,029.4,045.5,0.486,740.6,01.18,0.508
2014-06-05 02:47:00,1778E-3,5C000000,-0724,0845,12001,029.4,045.5,0.486,740.6,01.18,0.508
2014-06-05 02:48:00,1754E-3,5C000000,-0724,0845,12027,029.4,045.5,0.486,740.6,01.18,0.508
2014-06-05 02:49:00,1849E-3,5C000000,-0724,0845,11878,029.4,045.5,0.486,740.6,01.18,0.508
2014-06-05 02:50:00,1720E-3,5C000000,-0724,0845,11981,029.4,045.5,0.486,740.6,01.18,0.508
2014-06-05 02:51:00,1869E-3,5C000000,-0724,0845,12091,029.4,045.6,0.486,740.6,01.18,0.508
2014-06-05 02:52:00,1868E-3,5C000000,-0724,0846,12167,029.4,045.5,0.486,740.6,01.18,0.508
2014-06-05 02:53:00,1744E-3,5C000000,-0724,0845,11897,029.5,045.5,0.486,740.6,01.18,0.508
2014-06-05 02:54:00,1987E-3,5C000000,-0724,0846,12060,029.4,045.5,0.486,740.6,01.18,0.508
2014-06-05 02:55:00,1726E-3,5C000000,-0724,0845,12176,029.4,045.6,0.486,740.6,01.18,0.508
2014-06-05 02:56:00,1891E-3,5C000000,-0724,0846,12118,029.5,045.5,0.486,740.6,01.18,0.508
2014-06-05 02:57:00,1767E-3,5C000000,-0724,0846,11997,029.5,045.5,0.486,740.6,01.18,0.508
2014-06-05 02:58:00,1815E-3,5C000000,-0724,0845,11966,029.5,045.5,0.486,740.6,01.18,0.508
2014-06-05 02:59:00,1785E-3,5C000000,-0724,0847,12006,029.5,045.5,0.486,740.6,01.18,0.508
2014-06-05 03:00:00,1841E-3,5C000000,-0724,0846,12012,029.5,045.5,0.486,740.6,01.18,0.508
2014-06-05 03:01:00,1778E-3,5C000000,-0724,0847,12070,029.5,045.5,0.486,740.6,01.18,0.508
2014-06-05 03:02:00,1843E-3,5C000000,-0724,0846,12152,029.5,045.5,0.486,740.6,01.18,0.508
2014-06-05 03:03:00,1844E-3,5C000000,-0724,0846,12010,029.5,045.5,0.486,740.6,01.18,0.508
2014-06-05 03:04:00,1795E-3,5C000000,-0724,0847,12011,029.5,045.5,0.486,740.6,01.18,0.508
2014-06-05 03:05:00,1794E-3,5C000000,-0724,0846,12000,029.5,045.5,0.486,740.6,01.18,0.508
2014-06-05 03:06:00,1745E-3,5C000000,-0724,0846,12059,029.5,045.5,0.486,740.6,01.18,0.508
2014-06-05 03:07:00,1880E-3,5C000000,-0724,0846,11961,029.5,045.5,0.486,740.6,01.18,0.508
2014-06-05 03:08:00,1690E-3,5C000000,-0724,0847,12127,029.5,045.6,0.486,740.6,01.18,0.508
2014-06-05 03:09:00,1858E-3,5C000000,-0724,0847,11973,029.5,045.5,0.486,740.6,01.18,0.508
2014-06-05 03:10:00,1748E-3,5C000000,-0724,0846,11982,029.5,045.5,0.486,740.6,01.18,0.508
2014-06-05 03:11:00,1855E-3,5C000000,-0724,0846,12196,029.5,045.6,0.486,740.6,01.18,0.508
2014-06-05 03:12:00,1861E-3,5C000000,-0724,0847,12108,029.5,045.6,0.486,740.6,01.18,0.508
2014-06-05 03:13:00,1814E-3,5C000000,-0724,0846,11923,029.5,045.5,0.486,740.6,01.18,0.508
2014-06-05 03:14:00,1852E-3,5C000000,-0724,0846,11805,029.5,045.5,0.486,740.6,01.18,0.508
2014-06-05 03:15:00,1767E-3,5C000000,-0724,0846,11975,029.5,045.5,0.486,740.6,01.18,0.508
2014-06-05 03:16:00,1874E-3,5C000000,-0724,0846,12065,029.5,045.5,0.486,740.6,01.18,0.508
2014-06-05 03:17:00,1896E-3,5C000000,-0724,0846,12083,029.6,045.5,0.486,740.6,01.18,0.508
2014-06-05 03:18:00,1796E-3,5C000000,-0724,0846,12040,029.6,045.6,0.486,740.6,01.18,0.508
2014-06-05 03:19:00,1793E-3,5C000000,-0724,0845,12034,029.5,045.6,0.486,740.6,01.18,0.508
2014-06-05 03:20:00,1750E-3,5C000000,-0724,0846,12077,029.6,045.5,0.486,740.6,01.18,0.508
2014-06-05 03:21:00,1839E-3,5C000000,-0724,0845,11948,029.6,045.5,0.486,740.6,01.18,0.508
2014-06-05 03:22:00,1726E-3,5C000000,-0724,0846,12148,029.6,045.5,0.486,740.6,01.18,0.508
2014-06-05 03:23:00,1699E-3,5C000000,-0724,0846,12020,029.6,045.5,0.486,740.6,01.18,0.508
2014-06-05 03:24:00,1810E-3,5C000000,-0724,0845,12042,029.6,045.5,0.486,740.6,01.18,0.508
2014-06-05 03:25:00,1809E-3,5C000000,-0724,0846,11985,029.6,045.6,0.486,740.6,01.18,0.508
2014-06-05 03:26:00,1823E-3,5C000000,-0724,0845,12106,029.6,045.6,0.486,740.6,01.18,0.508
2014-06-05 03:27:00,1795E-3,5C000000,-0724,0845,11929,029.6,045.5,0.486,740.6,01.18,0.508
2014-06-05 03:28:00,1795E-3,5C000000,-0724,0846,12143,029.6,045.5,0.486,740.6,01.18,0.508
2014-06-05 03:29:00,1812E-3,5C000000,-0724,0846,11953,029.6,045.5,0.486,740.6,01.18,0.508
2014-06-05 03:30:00,1718E-3,5C000000,-0724,0847,12087,029.6,045.6,0.486,740.6,01.18,0.508
2014-06-05 03:31:00,1791E-3,5C000000,-0724,0846,11938,029.6,045.6,0.486,740.6,01.18,0.508
2014-06-05 03:32:00,1870E-3,5C000000,-0724,0845,12060,029.6,045.5,0.485,740.6,01.18,0.508
2014-06-05 03:33:00,1708E-3,5C000000,-0724,0845,12164,029.6,045.5,0.485,740.6,01.18,0.508
2014-06-05 03:34:00,1877E-3,5C000000,-0724,0846,12016,029.6,045.5,0.485,740.6,01.18,0.508
2014-06-05 03:35:00,1886E-3,5C000000,-0724,0846,11999,029.6,045.5,0.485,740.6,01.18,0.508
2014-06-05 03:36:00,1878E-3,5C000000,-0724,0846,12159,029.6,045.6,0.485,740.6,01.18,0.508
2014-06-05 03:37:00,1834E-3,5C000000,-0724,0847,12101,029.6,045.6,0.485,740.6,01.18,0.508
2014-06-05 03:38:00,1880E-3,5C000000,-0724,0846,11950,029.6,045.5,0.486,740.6,01.18,0.508
2014-06-05 03:39:00,1934E-3,5C000000,-0724,0846,12055,029.6,045.5,0.486,740.6,01.18,0.508
2014-06-05 03:40:00,1816E-3,5C000000,-0724,0845,12142,029.6,045.5,0.486,740.6,01.18,0.508
2014-06-05 03:41:00,1847E-3,5C000000,-0724,0847,12125,029.7,045.5,0.486,740.6,01.18,0.508
2014-06-05 03:42:00,1673E-3,5C000000,-0724,0845,12195,029.7,045.5,0.486,740.6,01.18,0.508
2014-06-05 03:43:00,1827E-3,5C000000,-0724,0846,12010,029.7,045.5,0.486,740.6,01.18,0.508
2014-06-05 03:44:00,1962E-3,5C000000,-0724,0846,11946,029.6,045.5,0.486,740.6,01.18,0.508
2014-06-05 03:45:00,1702E-3,5C000000,-0724,0846,12085,029.7,045.6,0.486,740.6,01.18,0.508
2014-06-05 03:46:00,1898E-3,5C000000,-0724,0846,12056,029.7,045.6,0.486,740.6,01.18,0.508
2014-06-05 03:47:00,1885E-3,5C000000,-0724,0846,12007,029.7,045.6,0.486,740.6,01.18,0.508
2014-06-05 03:48:00,1930E-3,5C000000,-0724,0847,12046,029.7,045.5,0.486,740.6,01.18,0.508
2014-06-05 03:49:00,1873E-3,5C000000,-0724,0847,12129,029.7,045.5,0.486,740.6,01.18,0.508
2014-06-05 03:50:00,1730E-3,5C000000,-0724,0846,12100,029.7,045.5,0.486,740.6,01.18,0.508
2014-06-05 03:51:00,1949E-3,5C000000,-0724,0846,12147,029.7,045.5,0.486,740.6,01.18,0.508
2014-06-05 03:52:00,1761E-3,5C000000,-0724,0846,11826,029.7,045.5,0.486,740.6,01.18,0.508
2014-06-05 03:53:00,1615E-3,5C000000,-0724,0846,11921,029.7,045.5,0.486,740.6,01.18,0.508
2014-06-05 03:54:00,1791E-3,5C000000,-0724,0845,12046,029.7,045.5,0.486,740.6,01.18,0.508
2014-06-05 03:55:00,1830E-3,5C000000,-0724,0845,12049,029.7,045.5,0.486,740.6,01.18,0.508
2014-06-05 03:56:00,1835E-3,5C000000,-0724,0846,11926,029.7,045.5,0.486,740.6,01.18,0.508
2014-06-05 03:57:00,1820E-3,5C000000,-0724,0846,12009,029.7,045.5,0.486,740.6,01.18,0.508
2014-06-05 03:58:00,1782E-3,5C000000,-0724,0847,12107,029.7,045.5,0.486,740.6,01.18,0.508
2014-06-05 03:59:00,1796E-3,5C000000,-0724,0846,12160,029.7,045.5,0.486,740.6,01.18,0.508
2014-06-05 04:00:00,1823E-3,5C000000,-0724,0847,12119,029.7,045.6,0.486,740.6,01.18,0.508
2014-06-05 04:01:00,1808E-3,5C000000,-0724,0846,11819,029.7,045.5,0.486,740.6,01.18,0.508
2014-06-05 04:02:00,2001E-3,5C000000,-0724,0846,12010,029.7,045.5,0.486,740.6,01.18,0.508
2014-06-05 04:03:00,1833E-3,5C000000,-0724,0846,12014,029.8,045.5,0.486,740.6,01.18,0.508
2014-06-05 04:04:00,1896E-3,5C000000,-0724,0846,11988,029.8,045.5,0.486,740.6,01.18,0.508
2014-06-05 04:05:00,1828E-3,5C000000,-0724,0845,11871,029.8,045.5,0.486,740.6,01.18,0.508
2014-06-05 04:06:00,1738E-3,5C000000,-0724,0846,12190,029.8,045.6,0.486,740.6,01.18,0.508
2014-06-05 04:07:00,1790E-3,5C000000,-0724,0846,11989,029.8,045.6,0.486,740.6,01.18,0.508
2014-06-05 04:08:00,1848E-3,5C000000,-0724,0847,12256,029.8,045.6,0.486,740.6,01.18,0.508
2014-06-05 04:09:00,1895E-3,5C000000,-0724,0846,11903,029.8,045.5,0.486,740.6,01.18,0.508
2014-06-05 04:10:00,1821E-3,5C000000,-0724,0846,12027,029.8,045.6,0.486,740.6,01.18,0.508
2014-06-05 04:11:00,1732E-3,5C000000,-0724,0846,12024,029.8,045.6,0.486,740.6,01.18,0.508
2014-06-05 04:12:00,1845E-3,5C000000,-0724,0847,12087,029.8,045.6,0.486,740.6,01.18,0.508
2014-06-05 04:13:00,1869E-3,5C000000,-0724,0846,12058,029.8,045.5,0.486,740.6,01.18,0.508
2014-06-05 04:14:00,1805E-3,5C000000,-0724,0846,12043,029.8,045.6,0.486,740.6,01.18,0.508
2014-06-05 04:15:00,1831E-3,5C000000,-0724,0845,11849,029.8,045.5,0.486,740.6,01.18,0.508
2014-06-05 04:16:00,1812E-3,5C000000,-0724,0847,12175,029.8,045.5,0.486,740.6,01.18,0.508
2014-06-05 04:17:00,1745E-3,5C000000,-0724,0846,11979,029.8,045.5,0.486,740.6,01.18,0.508
2014-06-05 04:18:00,1863E-3,5C000000,-0724,0846,12012,029.8,045.6,0.486,740.6,01.18,0.508
2014-06-05 04:19:00,1724E-3,5C000000,-0724,0845,12077,029.8,045.6,0.486,740.6,01.18,0.508
2014-06-05 04:20:00,1869E-3,5C000000,-0724,0846,11839,029.8,045.6,0.486,740.6,01.18,0.508